LVWPG SASA-SLVR

Flight info

Callsign LVWPG
Flight time N/A
Altitude 27000
Route KIBOS DCT ESOKA UL322 VIR
Aircraft B350/L-SBDFGR/S

Departure

Time 2026-05-08 01:30
Airport Martín Miguel de Güemes International Airport (SASA)

Arrival

Time N/A
Airport Viru Viru International Airport (SLVR)
Time Latitude Longitude Altitude Speed Heading
2026-05-08 00:56 -24.84538 -65.47950 4013 ft 0 kts 201°
2026-05-08 01:08 -24.84537 -65.47950 4013 ft 0 kts 201°
2026-05-08 01:16 -24.84537 -65.47949 3974 ft 0 kts 201°
2026-05-08 01:20 -24.84538 -65.47950 3986 ft 1 kts 191°
2026-05-08 01:20 -24.84533 -65.47926 4004 ft 8 kts 22°
2026-05-08 01:20 -24.84505 -65.47917 4013 ft 2 kts 322°
2026-05-08 01:21 -24.84500 -65.47934 4013 ft 3 kts 285°
2026-05-08 01:21 -24.84499 -65.47962 4013 ft 4 kts 253°
2026-05-08 01:21 -24.84509 -65.47997 4007 ft 5 kts 252°
2026-05-08 01:21 -24.84521 -65.48037 4013 ft 6 kts 251°
2026-05-08 01:22 -24.84535 -65.48079 4013 ft 6 kts 254°
2026-05-08 01:22 -24.84548 -65.48124 4013 ft 6 kts 251°
2026-05-08 01:22 -24.84561 -65.48169 4010 ft 6 kts 252°
2026-05-08 01:22 -24.84571 -65.48203 4008 ft 4 kts 256°
2026-05-08 01:23 -24.84576 -65.48223 4013 ft 0 kts 251°
2026-05-08 01:24 -24.84598 -65.48295 4007 ft 11 kts 250°
2026-05-08 01:24 -24.84650 -65.48367 4013 ft 13 kts 222°
2026-05-08 01:24 -24.84712 -65.48429 4013 ft 12 kts 217°
2026-05-08 01:25 -24.84798 -65.48454 4015 ft 33 kts 192°
2026-05-08 01:25 -24.85306 -65.48563 4013 ft 112 kts 192°
2026-05-08 01:25 -24.84546 -65.47954 4013 ft 4 kts 224°
2026-05-08 01:25 -24.84546 -65.47966 4003 ft 0 kts 302°
2026-05-08 01:26 -24.84513 -65.47973 4009 ft 6 kts 323°
2026-05-08 01:27 -24.84517 -65.48023 4013 ft 9 kts 250°
2026-05-08 01:27 -24.84533 -65.48073 4013 ft 6 kts 251°
2026-05-08 01:27 -24.84551 -65.48131 4013 ft 0 kts 243°
2026-05-08 01:28 -24.84560 -65.48166 4013 ft 18 kts 256°
2026-05-08 01:28 -24.84597 -65.48294 4006 ft 16 kts 251°
2026-05-08 01:29 -24.84652 -65.48370 4013 ft 13 kts 223°
2026-05-08 01:29 -24.84713 -65.48433 4006 ft 9 kts 213°
2026-05-08 01:29 -24.84726 -65.48440 4002 ft 0 kts 192°
2026-05-08 01:29 -24.85034 -65.48505 4008 ft 88 kts 189°
2026-05-08 01:30 -24.85838 -65.48674 4054 ft 140 kts 192°
2026-05-08 01:30 -24.86865 -65.48865 4396 ft 157 kts 188°
2026-05-08 01:30 -24.88025 -65.48970 4805 ft 180 kts 184°
2026-05-08 01:30 -24.89254 -65.48834 5423 ft 173 kts 155°
2026-05-08 01:31 -24.90149 -65.47991 5955 ft 174 kts 116°
2026-05-08 01:31 -24.90221 -65.46726 6578 ft 169 kts 67°
2026-05-08 01:31 -24.89477 -65.45649 6827 ft 188 kts 44°
2026-05-08 01:31 -24.88679 -65.44629 7574 ft 170 kts 68°
2026-05-08 01:32 -24.88410 -65.43355 8055 ft 173 kts 65°
2026-05-08 01:32 -24.87561 -65.42465 8564 ft 174 kts 19°
2026-05-08 01:32 -24.86355 -65.42437 9071 ft 177 kts 352°
2026-05-08 01:32 -24.85130 -65.42667 9559 ft 180 kts 351°
2026-05-08 01:33 -24.83905 -65.42891 10104 ft 179 kts 351°
2026-05-08 01:33 -24.82741 -65.43094 10843 ft 162 kts 350°
2026-05-08 01:33 -24.81628 -65.43262 11372 ft 163 kts 350°
2026-05-08 01:33 -24.80487 -65.43408 11862 ft 166 kts 351°
2026-05-08 01:34 -24.79322 -65.43275 12356 ft 173 kts 13°
2026-05-08 01:34 -24.78232 -65.42655 12833 ft 181 kts 33°
2026-05-08 01:34 -24.77573 -65.42078 13154 ft 185 kts 36°
2026-05-08 01:34 -24.76575 -65.41157 13613 ft 189 kts 35°
2026-05-08 01:35 -24.75556 -65.40226 14059 ft 193 kts 35°
2026-05-08 01:35 -24.74511 -65.39281 14481 ft 196 kts 35°
2026-05-08 01:35 -24.73085 -65.37999 15053 ft 200 kts 36°
2026-05-08 01:35 -24.72374 -65.37356 15338 ft 200 kts 36°
2026-05-08 01:36 -24.71287 -65.36376 15727 ft 204 kts 36°
2026-05-08 01:36 -24.70179 -65.35378 16136 ft 208 kts 37°
2026-05-08 01:36 -24.69053 -65.34364 16547 ft 211 kts 36°
2026-05-08 01:36 -24.67905 -65.33333 16929 ft 214 kts 38°
2026-05-08 01:37 -24.66741 -65.32294 17357 ft 217 kts 34°
2026-05-08 01:37 -24.65400 -65.31557 17721 ft 214 kts 10°
2026-05-08 01:37 -24.63937 -65.31191 18100 ft 217 kts
2026-05-08 01:37 -24.62452 -65.30810 18499 ft 221 kts
2026-05-08 01:38 -24.60949 -65.30388 18830 ft 224 kts
2026-05-08 01:38 -24.59433 -65.29966 19176 ft 226 kts
2026-05-08 01:38 -24.57907 -65.29544 19529 ft 226 kts
2026-05-08 01:38 -24.56383 -65.29121 19888 ft 227 kts
2026-05-08 01:39 -24.54865 -65.28697 20399 ft 218 kts
2026-05-08 01:39 -24.53400 -65.28294 20807 ft 218 kts
2026-05-08 01:39 -24.51922 -65.27887 21152 ft 220 kts
2026-05-08 01:39 -24.50432 -65.27473 21506 ft 221 kts
2026-05-08 01:40 -24.48934 -65.27058 21833 ft 223 kts
2026-05-08 01:40 -24.47427 -65.26642 22163 ft 224 kts
2026-05-08 01:40 -24.45908 -65.26221 22502 ft 226 kts
2026-05-08 01:40 -24.44374 -65.25798 22847 ft 228 kts
2026-05-08 01:41 -24.42836 -65.25370 23140 ft 229 kts
2026-05-08 01:41 -24.41286 -65.24943 23449 ft 229 kts
2026-05-08 01:41 -24.39735 -65.24515 23761 ft 231 kts
2026-05-08 01:41 -24.38173 -65.24084 24030 ft 232 kts
2026-05-08 01:42 -24.36607 -65.23650 24299 ft 233 kts
2026-05-08 01:42 -24.35034 -65.23216 24569 ft 233 kts
2026-05-08 01:42 -24.33455 -65.22780 24832 ft 234 kts
2026-05-08 01:42 -24.31872 -65.22343 25092 ft 235 kts
2026-05-08 01:43 -24.30280 -65.21904 25340 ft 236 kts
2026-05-08 01:43 -24.28684 -65.21463 25598 ft 237 kts
2026-05-08 01:43 -24.27077 -65.21020 25859 ft 238 kts
2026-05-08 01:43 -24.25466 -65.20576 26104 ft 239 kts
2026-05-08 01:44 -24.23848 -65.20130 26353 ft 240 kts
2026-05-08 01:44 -24.22224 -65.19683 26607 ft 241 kts
2026-05-08 01:44 -24.20592 -65.19232 26853 ft 242 kts
2026-05-08 01:44 -24.18935 -65.18779 26966 ft 251 kts
2026-05-08 01:45 -24.17202 -65.18306 26977 ft 263 kts
2026-05-08 01:45 -24.15387 -65.17830 26979 ft 273 kts
2026-05-08 01:45 -24.13512 -65.17308 26980 ft 283 kts 10°
2026-05-08 01:45 -24.11581 -65.16755 26948 ft 290 kts 11°
2026-05-08 01:46 -24.09613 -65.16208 26971 ft 294 kts 10°
2026-05-08 01:46 -24.07612 -65.15662 26971 ft 298 kts 11°
2026-05-08 01:46 -24.05587 -65.15105 26971 ft 302 kts 11°
2026-05-08 01:46 -24.03535 -65.14538 26969 ft 305 kts 11°
2026-05-08 01:47 -24.01471 -65.13970 26970 ft 307 kts 11°
2026-05-08 01:47 -23.99385 -65.13400 26961 ft 309 kts 11°
2026-05-08 01:47 -23.97286 -65.12824 26962 ft 312 kts 11°
2026-05-08 01:48 -23.93034 -65.11656 26963 ft 317 kts 11°
2026-05-08 01:48 -23.90895 -65.11070 26957 ft 318 kts 11°
2026-05-08 01:48 -23.88741 -65.10480 26945 ft 320 kts 11°
2026-05-08 01:48 -23.86583 -65.09888 26947 ft 320 kts 11°
2026-05-08 01:49 -23.84418 -65.09295 26940 ft 321 kts 11°
2026-05-08 01:49 -23.82245 -65.08700 26949 ft 322 kts 11°
2026-05-08 01:49 -23.80072 -65.08104 26939 ft 322 kts 11°
2026-05-08 01:49 -23.77901 -65.07510 26940 ft 321 kts 11°
2026-05-08 01:50 -23.75734 -65.06917 26942 ft 320 kts 11°
2026-05-08 01:50 -23.73575 -65.06329 26944 ft 320 kts 11°
2026-05-08 01:50 -23.71416 -65.05738 26942 ft 320 kts 11°
2026-05-08 01:50 -23.69260 -65.05147 26938 ft 320 kts 11°
2026-05-08 01:51 -23.67105 -65.04560 26942 ft 319 kts 11°
2026-05-08 01:51 -23.64951 -65.03972 26939 ft 319 kts 11°
2026-05-08 01:51 -23.62800 -65.03388 26938 ft 319 kts 11°
2026-05-08 01:51 -23.60648 -65.02798 26933 ft 318 kts 11°
2026-05-08 01:52 -23.58503 -65.02209 26940 ft 318 kts 11°
2026-05-08 01:52 -23.56357 -65.01626 26932 ft 318 kts 11°
2026-05-08 01:52 -23.54206 -65.01042 26932 ft 319 kts 11°
2026-05-08 01:52 -23.52052 -65.00454 26932 ft 319 kts 12°
2026-05-08 01:53 -23.49901 -64.99867 26927 ft 319 kts 11°
2026-05-08 01:53 -23.47752 -64.99283 26930 ft 318 kts 11°
2026-05-08 01:53 -23.45604 -64.98700 26928 ft 318 kts 11°
2026-05-08 01:53 -23.43458 -64.98112 26935 ft 318 kts 11°
2026-05-08 01:54 -23.41315 -64.97526 26944 ft 318 kts 10°
2026-05-08 01:54 -23.39164 -64.96947 26941 ft 318 kts 10°
2026-05-08 01:54 -23.37019 -64.96362 26928 ft 317 kts 10°
2026-05-08 01:54 -23.34881 -64.95779 26930 ft 316 kts 10°
2026-05-08 01:55 -23.32749 -64.95202 26929 ft 316 kts 10°
2026-05-08 01:55 -23.30637 -64.94630 27036 ft 311 kts 10°
2026-05-08 01:55 -23.28533 -64.94058 27036 ft 312 kts 10°
2026-05-08 01:55 -23.26430 -64.93481 27037 ft 312 kts 10°
2026-05-08 01:56 -23.24326 -64.92916 27034 ft 312 kts 10°
2026-05-08 01:56 -23.22220 -64.92347 27033 ft 312 kts 10°
2026-05-08 01:56 -23.20111 -64.91774 27034 ft 313 kts 10°
2026-05-08 01:56 -23.17995 -64.91198 27039 ft 314 kts 10°
2026-05-08 01:57 -23.15875 -64.90627 27037 ft 314 kts
2026-05-08 01:57 -23.13756 -64.90051 27039 ft 313 kts 10°
2026-05-08 01:57 -23.11645 -64.89474 27036 ft 313 kts 10°
2026-05-08 01:57 -23.09530 -64.88905 27037 ft 313 kts 10°
2026-05-08 01:58 -23.07416 -64.88336 27049 ft 313 kts 10°
2026-05-08 01:58 -23.05303 -64.87762 27049 ft 312 kts 10°
2026-05-08 01:58 -23.03191 -64.87193 27042 ft 313 kts 10°
2026-05-08 01:58 -23.01076 -64.86619 27047 ft 314 kts 10°
2026-05-08 01:59 -22.98954 -64.86045 27042 ft 314 kts 10°
2026-05-08 01:59 -22.96835 -64.85468 27043 ft 315 kts 11°
2026-05-08 01:59 -22.94742 -64.84778 27041 ft 314 kts 13°
2026-05-08 01:59 -22.92651 -64.84084 27040 ft 314 kts 13°
2026-05-08 02:00 -22.90565 -64.83412 27040 ft 313 kts 13°
2026-05-08 02:00 -22.88477 -64.82736 27041 ft 313 kts 13°
2026-05-08 02:00 -22.86391 -64.82045 27041 ft 313 kts 13°
2026-05-08 02:00 -22.84306 -64.81353 27042 ft 314 kts 13°
2026-05-08 02:01 -22.82211 -64.80667 27043 ft 314 kts 13°
2026-05-08 02:01 -22.80115 -64.79982 27043 ft 315 kts 13°
2026-05-08 02:01 -22.78030 -64.79298 27044 ft 315 kts 13°
2026-05-08 02:01 -22.75920 -64.78604 27046 ft 315 kts 13°
2026-05-08 02:02 -22.73821 -64.77916 27043 ft 315 kts 13°
2026-05-08 02:02 -22.71730 -64.77243 27049 ft 315 kts 12°
2026-05-08 02:02 -22.69622 -64.76550 27048 ft 316 kts 14°
2026-05-08 02:02 -22.67522 -64.75842 27048 ft 316 kts 13°
2026-05-08 02:03 -22.65420 -64.75159 27045 ft 315 kts 13°
2026-05-08 02:03 -22.63325 -64.74483 27043 ft 314 kts 13°
2026-05-08 02:03 -22.61237 -64.73800 27043 ft 313 kts 13°
2026-05-08 02:03 -22.59181 -64.73125 27055 ft 312 kts 13°
2026-05-08 02:04 -22.57072 -64.72435 27052 ft 313 kts 13°
2026-05-08 02:04 -22.54991 -64.71755 27052 ft 312 kts 13°
2026-05-08 02:04 -22.52913 -64.71075 27051 ft 312 kts 13°
2026-05-08 02:04 -22.50838 -64.70399 27056 ft 312 kts 13°
2026-05-08 02:05 -22.48762 -64.69720 27054 ft 311 kts 13°
2026-05-08 02:05 -22.46688 -64.69042 27056 ft 311 kts 13°
2026-05-08 02:05 -22.44617 -64.68368 27056 ft 311 kts 13°
2026-05-08 02:05 -22.42551 -64.67692 27059 ft 310 kts 13°
2026-05-08 02:06 -22.40482 -64.67020 27057 ft 310 kts 12°
2026-05-08 02:06 -22.38443 -64.66355 27053 ft 310 kts 13°
2026-05-08 02:06 -22.36352 -64.65672 27053 ft 309 kts 13°
2026-05-08 02:06 -22.34297 -64.65003 27051 ft 308 kts 13°
2026-05-08 02:07 -22.32255 -64.64339 27052 ft 308 kts 12°
2026-05-08 02:07 -22.30206 -64.63665 27054 ft 308 kts 13°
2026-05-08 02:07 -22.28158 -64.62994 27061 ft 307 kts 12°
2026-05-08 02:07 -22.26109 -64.62346 27053 ft 307 kts 12°
2026-05-08 02:08 -22.24064 -64.61681 27050 ft 307 kts 13°
2026-05-08 02:08 -22.22023 -64.61008 27054 ft 306 kts 12°
2026-05-08 02:08 -22.19982 -64.60354 27069 ft 308 kts 12°
2026-05-08 02:08 -22.17919 -64.59697 27069 ft 309 kts 12°
2026-05-08 02:09 -22.15859 -64.59031 27071 ft 310 kts 12°
2026-05-08 02:09 -22.13795 -64.58366 27077 ft 309 kts 12°
2026-05-08 02:09 -22.11728 -64.57716 27072 ft 309 kts 12°
2026-05-08 02:09 -22.09664 -64.57066 27077 ft 309 kts 12°
2026-05-08 02:10 -22.07635 -64.56411 27073 ft 308 kts 12°
2026-05-08 02:10 -22.05613 -64.55756 27074 ft 308 kts 12°
2026-05-08 02:10 -22.03529 -64.55090 27077 ft 308 kts 12°
2026-05-08 02:10 -22.01471 -64.54442 27074 ft 308 kts 12°
2026-05-08 02:11 -21.99416 -64.53786 27074 ft 308 kts 12°
2026-05-08 02:11 -21.97365 -64.53128 27077 ft 308 kts 12°
2026-05-08 02:11 -21.95308 -64.52470 27069 ft 308 kts 11°
2026-05-08 02:11 -21.94648 -64.52261 27068 ft 308 kts 11°
2026-05-08 02:12 -21.93947 -64.52039 27069 ft 308 kts 11°
2026-05-08 02:12 -21.89153 -64.50512 27063 ft 307 kts 12°
2026-05-08 02:12 -21.87106 -64.49860 27067 ft 306 kts 11°
2026-05-08 02:12 -21.85057 -64.49208 27069 ft 308 kts 12°
2026-05-08 02:13 -21.83001 -64.48550 27069 ft 309 kts 12°
2026-05-08 02:13 -21.81635 -64.48116 27074 ft 309 kts 12°
2026-05-08 02:13 -21.79574 -64.47466 27073 ft 308 kts 12°
2026-05-08 02:13 -21.76824 -64.46585 27065 ft 308 kts 12°
2026-05-08 02:14 -21.74776 -64.45919 27062 ft 307 kts 11°
2026-05-08 02:14 -21.72726 -64.45282 27064 ft 307 kts 11°
2026-05-08 02:14 -21.70697 -64.44652 27060 ft 307 kts 12°
2026-05-08 02:14 -21.69339 -64.44215 27064 ft 307 kts 12°
2026-05-08 02:15 -21.67297 -64.43555 27066 ft 308 kts 12°
2026-05-08 02:15 -21.65240 -64.42905 27067 ft 308 kts 11°
2026-05-08 02:15 -21.63183 -64.42255 27046 ft 308 kts 11°
2026-05-08 02:15 -21.61124 -64.41602 27044 ft 309 kts 11°
2026-05-08 02:16 -21.59063 -64.40947 27047 ft 309 kts 11°
2026-05-08 02:16 -21.57001 -64.40291 27048 ft 309 kts 11°
2026-05-08 02:16 -21.54943 -64.39638 27046 ft 308 kts 11°
2026-05-08 02:16 -21.52894 -64.38988 27043 ft 306 kts 11°
2026-05-08 02:17 -21.50866 -64.38329 27031 ft 304 kts 11°
2026-05-08 02:17 -21.48836 -64.37697 27036 ft 304 kts
2026-05-08 02:17 -21.46799 -64.37075 27032 ft 304 kts 10°
2026-05-08 02:17 -21.44772 -64.36428 27036 ft 304 kts 11°
2026-05-08 02:18 -21.42760 -64.35779 27029 ft 304 kts 10°
2026-05-08 02:18 -21.40732 -64.35132 27034 ft 304 kts
2026-05-08 02:18 -21.38700 -64.34500 27011 ft 304 kts
2026-05-08 02:18 -21.36673 -64.33858 27010 ft 303 kts 10°
2026-05-08 02:19 -21.34649 -64.33211 27016 ft 303 kts 10°
2026-05-08 02:19 -21.32623 -64.32567 27007 ft 304 kts
2026-05-08 02:19 -21.30596 -64.31917 27002 ft 303 kts
2026-05-08 02:19 -21.28576 -64.31275 27008 ft 302 kts
2026-05-08 02:20 -21.26571 -64.30631 26991 ft 302 kts 10°
2026-05-08 02:20 -21.24552 -64.29976 26985 ft 302 kts
2026-05-08 02:20 -21.22543 -64.29336 26985 ft 301 kts
2026-05-08 02:20 -21.20543 -64.28705 26987 ft 300 kts
2026-05-08 02:21 -21.18539 -64.28063 26993 ft 300 kts
2026-05-08 02:21 -21.16539 -64.27419 26990 ft 300 kts
2026-05-08 02:21 -21.14540 -64.26783 26990 ft 300 kts
2026-05-08 02:21 -21.12546 -64.26149 26979 ft 301 kts
2026-05-08 02:22 -21.10539 -64.25510 26976 ft 302 kts
2026-05-08 02:22 -21.08530 -64.24867 26975 ft 301 kts
2026-05-08 02:22 -21.06533 -64.24217 26977 ft 300 kts 10°
2026-05-08 02:22 -21.04519 -64.23585 26978 ft 300 kts
2026-05-08 02:23 -21.02521 -64.22958 26975 ft 301 kts 10°
2026-05-08 02:23 -21.00495 -64.22312 26965 ft 304 kts
2026-05-08 02:23 -20.98461 -64.21648 26971 ft 306 kts
2026-05-08 02:23 -20.96410 -64.21008 26975 ft 308 kts
2026-05-08 02:24 -20.94344 -64.20364 26982 ft 311 kts
2026-05-08 02:24 -20.92263 -64.19681 26982 ft 314 kts
2026-05-08 02:24 -20.90169 -64.19017 26986 ft 315 kts
2026-05-08 02:24 -20.88062 -64.18351 26983 ft 317 kts
2026-05-08 02:25 -20.85950 -64.17677 26985 ft 318 kts
2026-05-08 02:25 -20.83821 -64.16999 26972 ft 319 kts 10°
2026-05-08 02:25 -20.81683 -64.16362 26973 ft 319 kts
2026-05-08 02:25 -20.79550 -64.15660 26975 ft 323 kts 12°
2026-05-08 02:26 -20.77414 -64.14919 26980 ft 322 kts 10°
2026-05-08 02:26 -20.75262 -64.14258 26982 ft 322 kts
2026-05-08 02:26 -20.73077 -64.13600 26985 ft 322 kts
2026-05-08 02:26 -20.70924 -64.12914 26983 ft 323 kts 10°
2026-05-08 02:27 -20.68772 -64.12217 26970 ft 323 kts 10°
2026-05-08 02:27 -20.66621 -64.11533 26972 ft 323 kts
2026-05-08 02:27 -20.64502 -64.10866 26970 ft 323 kts
2026-05-08 02:27 -20.62322 -64.10171 26966 ft 323 kts 10°
2026-05-08 02:28 -20.60196 -64.09487 26965 ft 323 kts 10°
2026-05-08 02:28 -20.58035 -64.08794 26970 ft 322 kts
2026-05-08 02:28 -20.55885 -64.08108 26967 ft 323 kts 10°
2026-05-08 02:28 -20.53741 -64.07427 26967 ft 322 kts 10°
2026-05-08 02:29 -20.51594 -64.06731 26974 ft 322 kts
2026-05-08 02:29 -20.49443 -64.06065 26972 ft 322 kts
2026-05-08 02:29 -20.47288 -64.05376 26966 ft 324 kts 10°
2026-05-08 02:29 -20.45144 -64.04673 26967 ft 321 kts
2026-05-08 02:30 -20.43004 -64.04003 26970 ft 320 kts
2026-05-08 02:30 -20.40879 -64.03330 26965 ft 318 kts
2026-05-08 02:30 -20.38765 -64.02652 26970 ft 318 kts
2026-05-08 02:30 -20.36648 -64.01976 26960 ft 317 kts
2026-05-08 02:31 -20.34536 -64.01303 26959 ft 317 kts
2026-05-08 02:31 -20.32419 -64.00630 26959 ft 317 kts
2026-05-08 02:31 -20.30301 -63.99958 26958 ft 317 kts
2026-05-08 02:31 -20.28186 -63.99282 26959 ft 318 kts
2026-05-08 02:32 -20.26069 -63.98608 26949 ft 318 kts
2026-05-08 02:32 -20.23978 -63.97944 26936 ft 318 kts
2026-05-08 02:32 -20.21855 -63.97271 26935 ft 318 kts
2026-05-08 02:32 -20.19730 -63.96595 26934 ft 318 kts
2026-05-08 02:33 -20.17612 -63.95921 26936 ft 318 kts
2026-05-08 02:33 -20.15491 -63.95248 26936 ft 318 kts
2026-05-08 02:33 -20.13367 -63.94573 26935 ft 319 kts
2026-05-08 02:33 -20.11242 -63.93895 26932 ft 319 kts
2026-05-08 02:34 -20.09120 -63.93223 26931 ft 318 kts
2026-05-08 02:34 -20.06996 -63.92558 26929 ft 319 kts
2026-05-08 02:34 -20.04862 -63.91877 26930 ft 319 kts
2026-05-08 02:34 -20.02734 -63.91198 26929 ft 319 kts
2026-05-08 02:35 -20.00613 -63.90512 26939 ft 317 kts
2026-05-08 02:35 -19.98498 -63.89851 26933 ft 316 kts
2026-05-08 02:35 -19.96381 -63.89205 26934 ft 317 kts
2026-05-08 02:35 -19.94268 -63.88522 26933 ft 318 kts
2026-05-08 02:36 -19.92148 -63.87836 26931 ft 318 kts
2026-05-08 02:36 -19.90026 -63.87166 26931 ft 318 kts
2026-05-08 02:36 -19.87911 -63.86495 26933 ft 319 kts
2026-05-08 02:36 -19.85779 -63.85813 26927 ft 319 kts
2026-05-08 02:37 -19.83660 -63.85132 26927 ft 320 kts
2026-05-08 02:37 -19.81632 -63.84487 26924 ft 320 kts
2026-05-08 02:37 -19.79449 -63.83792 26932 ft 320 kts
2026-05-08 02:37 -19.77344 -63.83120 26927 ft 320 kts
2026-05-08 02:38 -19.75260 -63.82458 26920 ft 321 kts
2026-05-08 02:38 -19.73126 -63.81776 26907 ft 320 kts
2026-05-08 02:38 -19.71031 -63.81112 26916 ft 321 kts
2026-05-08 02:38 -19.68889 -63.80426 26910 ft 322 kts
2026-05-08 02:39 -19.66747 -63.79741 26913 ft 322 kts
2026-05-08 02:39 -19.64702 -63.79096 26915 ft 319 kts
2026-05-08 02:39 -19.62573 -63.78418 26824 ft 316 kts
2026-05-08 02:39 -19.60474 -63.77746 26468 ft 321 kts
2026-05-08 02:40 -19.58345 -63.77073 26212 ft 320 kts
2026-05-08 02:40 -19.56216 -63.76395 26013 ft 319 kts
2026-05-08 02:40 -19.54175 -63.75742 25796 ft 317 kts
2026-05-08 02:40 -19.52065 -63.75073 25376 ft 317 kts
2026-05-08 02:41 -19.49955 -63.74405 24975 ft 317 kts
2026-05-08 02:41 -19.47931 -63.73764 24765 ft 315 kts
2026-05-08 02:41 -19.45839 -63.73096 24609 ft 313 kts
2026-05-08 02:41 -19.43750 -63.72438 24398 ft 313 kts
2026-05-08 02:42 -19.41664 -63.71776 24201 ft 312 kts
2026-05-08 02:42 -19.39637 -63.71128 24072 ft 308 kts
2026-05-08 02:42 -19.37571 -63.70473 23789 ft 308 kts
2026-05-08 02:42 -19.35531 -63.69833 23537 ft 307 kts
2026-05-08 02:43 -19.33483 -63.69177 23211 ft 309 kts
2026-05-08 02:43 -19.31430 -63.68487 22817 ft 309 kts
2026-05-08 02:43 -19.29368 -63.67876 22583 ft 307 kts
2026-05-08 02:43 -19.27312 -63.67253 22393 ft 308 kts
2026-05-08 02:44 -19.25257 -63.66581 22140 ft 309 kts 10°
2026-05-08 02:44 -19.23217 -63.65892 21937 ft 308 kts 11°
2026-05-08 02:44 -19.21169 -63.65209 21694 ft 309 kts 11°
2026-05-08 02:44 -19.19121 -63.64537 21501 ft 308 kts 11°
2026-05-08 02:45 -19.17081 -63.63867 21299 ft 307 kts 11°
2026-05-08 02:45 -19.15042 -63.63195 21110 ft 307 kts 11°
2026-05-08 02:45 -19.13028 -63.62529 20921 ft 306 kts 11°
2026-05-08 02:45 -19.10994 -63.61852 20714 ft 305 kts 11°
2026-05-08 02:46 -19.08983 -63.61181 20125 ft 302 kts 12°
2026-05-08 02:46 -19.06992 -63.60518 19506 ft 303 kts 13°
2026-05-08 02:46 -19.04988 -63.59849 18968 ft 301 kts 14°
2026-05-08 02:46 -19.03011 -63.59186 18371 ft 301 kts 14°
2026-05-08 02:47 -19.01004 -63.58513 17963 ft 301 kts 14°
2026-05-08 02:47 -18.99016 -63.57842 17513 ft 300 kts 14°
2026-05-08 02:47 -18.97056 -63.57180 17147 ft 298 kts 14°
2026-05-08 02:47 -18.95078 -63.56511 16790 ft 298 kts 14°
2026-05-08 02:48 -18.93124 -63.55874 16627 ft 296 kts 13°
2026-05-08 02:48 -18.91173 -63.55224 16391 ft 296 kts 13°
2026-05-08 02:48 -18.89215 -63.54562 16173 ft 295 kts 16°
2026-05-08 02:48 -18.87294 -63.53896 15954 ft 295 kts 14°
2026-05-08 02:49 -18.85408 -63.53242 15784 ft 293 kts 14°
2026-05-08 02:49 -18.83462 -63.52570 15562 ft 293 kts 15°
2026-05-08 02:49 -18.81526 -63.51903 15377 ft 292 kts 17°
2026-05-08 02:49 -18.79643 -63.51255 15198 ft 290 kts 17°
2026-05-08 02:50 -18.77716 -63.50607 14962 ft 290 kts 16°
2026-05-08 02:50 -18.75825 -63.49965 14763 ft 291 kts 16°
2026-05-08 02:50 -18.73906 -63.49304 14579 ft 286 kts 17°
2026-05-08 02:50 -18.72011 -63.48646 14002 ft 288 kts 18°
2026-05-08 02:51 -18.70152 -63.47996 13566 ft 287 kts 18°
2026-05-08 02:51 -18.68276 -63.47336 13104 ft 287 kts 18°
2026-05-08 02:51 -18.66379 -63.46667 12819 ft 287 kts 18°
2026-05-08 02:51 -18.64511 -63.46007 12561 ft 286 kts 18°
2026-05-08 02:52 -18.62617 -63.45333 12233 ft 288 kts 18°
2026-05-08 02:52 -18.60723 -63.44656 11910 ft 289 kts 18°
2026-05-08 02:52 -18.58849 -63.43982 11643 ft 288 kts 18°
2026-05-08 02:52 -18.56953 -63.43298 11349 ft 288 kts 18°
2026-05-08 02:53 -18.55109 -63.42636 11133 ft 285 kts 17°
2026-05-08 02:53 -18.53839 -63.42178 10913 ft 287 kts 18°
2026-05-08 02:53 -18.51977 -63.41505 10665 ft 286 kts 18°
2026-05-08 02:53 -18.50145 -63.40835 10402 ft 287 kts 17°
2026-05-08 02:54 -18.48222 -63.40124 10217 ft 290 kts 17°
2026-05-08 02:54 -18.46358 -63.39434 10062 ft 286 kts 17°
2026-05-08 02:54 -18.44497 -63.38752 9736 ft 289 kts 18°
2026-05-08 02:54 -18.42570 -63.38038 9476 ft 291 kts 17°
2026-05-08 02:55 -18.40677 -63.37341 9126 ft 296 kts 18°
2026-05-08 02:55 -18.36834 -63.35900 8752 ft 294 kts 18°
2026-05-08 02:55 -18.34948 -63.35188 8604 ft 293 kts 19°
2026-05-08 02:56 -18.33020 -63.34460 8381 ft 295 kts 19°
2026-05-08 02:56 -18.31099 -63.33730 8287 ft 291 kts 19°
2026-05-08 02:56 -18.29229 -63.33018 7990 ft 294 kts 19°
2026-05-08 02:56 -18.27265 -63.32270 7765 ft 296 kts 20°
2026-05-08 02:57 -18.25329 -63.31527 7656 ft 294 kts 20°
2026-05-08 02:57 -18.23415 -63.30787 7526 ft 292 kts 20°
2026-05-08 02:57 -18.21549 -63.30063 7245 ft 295 kts 20°
2026-05-08 02:57 -18.19613 -63.29309 7043 ft 294 kts 21°
2026-05-08 02:58 -18.17697 -63.28556 6850 ft 294 kts 21°
2026-05-08 02:58 -18.15825 -63.27812 6634 ft 294 kts 21°
2026-05-08 02:58 -18.13914 -63.27050 6426 ft 294 kts 22°
2026-05-08 02:58 -18.12012 -63.26281 6275 ft 288 kts 18°
2026-05-08 02:59 -18.10199 -63.25537 6246 ft 278 kts 17°
2026-05-08 02:59 -18.08397 -63.24798 6036 ft 277 kts 17°
2026-05-08 02:59 -18.06641 -63.24090 5798 ft 276 kts 17°
2026-05-08 02:59 -18.04847 -63.23358 5564 ft 276 kts 17°
2026-05-08 03:00 -18.03100 -63.22619 5389 ft 273 kts 19°
2026-05-08 03:00 -18.01308 -63.21863 5141 ft 274 kts 18°
2026-05-08 03:00 -17.99615 -63.21148 4878 ft 275 kts 18°
2026-05-08 03:00 -17.97833 -63.20392 4637 ft 275 kts 17°
2026-05-08 03:01 -17.96081 -63.19638 4506 ft 270 kts 18°
2026-05-08 03:01 -17.94392 -63.18906 4274 ft 270 kts 18°
2026-05-08 03:01 -17.92647 -63.18146 4035 ft 270 kts 18°
2026-05-08 03:01 -17.90931 -63.17392 3889 ft 265 kts 18°
2026-05-08 03:02 -17.89268 -63.16660 3663 ft 266 kts 19°
2026-05-08 03:02 -17.87585 -63.15911 3446 ft 264 kts 18°
2026-05-08 03:02 -17.85910 -63.15155 3203 ft 261 kts 18°
2026-05-08 03:02 -17.84287 -63.14441 3213 ft 257 kts 16°
2026-05-08 03:03 -17.82604 -63.13839 3287 ft 255 kts 14°
2026-05-08 03:03 -17.80958 -63.13272 3317 ft 258 kts 13°
2026-05-08 03:03 -17.79206 -63.12891 3472 ft 249 kts
2026-05-08 03:03 -17.77509 -63.12601 3669 ft 246 kts
2026-05-08 03:04 -17.75880 -63.12130 3672 ft 243 kts 14°
2026-05-08 03:04 -17.74413 -63.11392 3346 ft 227 kts 20°
2026-05-08 03:04 -17.73067 -63.10579 2716 ft 224 kts 24°
2026-05-08 03:04 -17.71791 -63.09766 2553 ft 197 kts 18°